Waarnemingen

Advertentie
Mijn weer
Dieppe, Frankrijk (7040): temperatuur & dauwpunt: 14.05.2019 04:00:00 - 20.05.2019 04:00:00 (CEST)Dieppe, Frankrijk (7040): temperatuur 5cm: 14.05.2019 04:00:00 - 20.05.2019 04:00:00 (CEST)Dieppe, Frankrijk (7040): windsnelheid & windstoten: 14.05.2019 04:00:00 - 20.05.2019 04:00:00 (CEST)Dieppe, Frankrijk (7040): windrichting: 14.05.2019 04:00:00 - 20.05.2019 04:00:00 (CEST)Dieppe, Frankrijk (7040): luchtdruk: 14.05.2019 04:00:00 - 20.05.2019 04:00:00 (CEST)Dieppe, Frankrijk (7040): zicht: 14.05.2019 04:00:00 - 20.05.2019 04:00:00 (CEST)Dieppe, Frankrijk (7040): neerslag: 14.05.2019 04:00:00 - 20.05.2019 04:00:00 (CEST)
Datum & Tijd tt [°C] td [°C] tt 5cm [°C] ff [km/u] ff [kn] fx [km/u] fx [kn] dd ppp [hPa] vv [km] rr [mm]
20.05.2019 04:00:00 12,0 9,4 11,8 9 5 15 8 NNW 1010,4 - 0,0
20.05.2019 03:00:00 12,0 9,6 11,7 11 6 19 10 N 1010,7 - 0,0
20.05.2019 02:00:00 12,2 9,4 11,8 14 8 22 12 N 1011,0 6 0,0
20.05.2019 01:00:00 12,3 9,7 12,1 15 8 19 11 N 1011,1 - 0,0
20.05.2019 00:00:00 12,6 10,3 12,0 12 7 29 16 NNO 1011,2 - 0,0
19.05.2019 23:00:00 12,5 10,6 11,9 15 8 29 16 NNO 1010,7 6 0,0
19.05.2019 22:00:00 12,6 10,5 12,2 12 7 27 14 NNO 1010,4 - 0,0
19.05.2019 21:00:00 12,5 10,2 12,3 14 7 29 16 NNO 1009,8 - 0,0
19.05.2019 20:00:00 12,8 10,3 13,1 13 7 29 15 NO 1009,5 8 0,0
19.05.2019 19:00:00 12,9 10,6 13,2 15 8 29 16 NNO 1009,4 - 0,0
19.05.2019 18:00:00 13,3 11,0 13,5 15 8 32 17 NO 1009,3 - 0,0
19.05.2019 17:00:00 13,2 11,3 13,5 18 10 29 15 NNO 1009,3 8 0,0
19.05.2019 16:00:00 13,5 11,4 14,5 16 8 26 14 NNO 1009,1 - 0,0
19.05.2019 15:00:00 13,8 11,5 15,4 13 7 19 10 NNO 1009,1 - 0,0
19.05.2019 14:00:00 13,8 11,5 15,4 10 5 18 10 NNO 1009,0 1,0 0,0
19.05.2019 13:00:00 13,4 10,7 14,6 11 6 24 13 NNO 1008,8 - 0,0
19.05.2019 12:00:00 13,4 11,3 14,4 15 8 23 12 NNO 1008,8 - 0,0
19.05.2019 11:00:00 13,7 11,6 14,7 11 6 18 10 NNO 1008,6 2,0 0,0
19.05.2019 10:00:00 13,4 11,8 14,2 7 4 21 11 NO 1008,2 - 0,0
19.05.2019 09:00:00 13,0 11,6 12,6 11 6 22 12 NO 1008,0 - 0,0
19.05.2019 08:00:00 12,7 11,3 12,2 11 6 20 11 NNO 1007,8 4,0 0,0
19.05.2019 07:00:00 12,5 10,9 11,8 7 4 19 11 NNO 1007,5 - 0,0
19.05.2019 06:00:00 12,4 10,5 11,8 14 7 19 11 N 1007,2 - 0,0
19.05.2019 05:00:00 12,6 11,0 11,8 13 7 16 9 N 1007,4 4,0 0,0
19.05.2019 04:00:00 12,8 10,9 11,6 7 4 15 8 NO 1007,3 - 0,0
19.05.2019 03:00:00 12,6 10,7 11,7 6 3 16 9 NO 1007,4 - 0,0
19.05.2019 02:00:00 12,9 11,3 12,2 8 4 17 9 NNO 1007,6 1,0 0,0
19.05.2019 01:00:00 13,0 11,4 12,0 11 6 20 11 ONO 1007,7 - 0,0
19.05.2019 00:00:00 13,0 11,7 12,0 6 3 15 8 NNO 1007,8 - 0,0
18.05.2019 23:00:00 13,0 11,4 12,2 9 5 14 7 N 1007,7 - 0,0
18.05.2019 22:00:00 13,2 11,8 12,2 0 0 13 7 N 1007,6 - 0,0
18.05.2019 21:00:00 13,3 11,7 12,3 6 3 18 10 NNO 1007,1 - 0,2
18.05.2019 20:00:00 13,2 11,8 12,3 6 3 16 8 NO 1006,8 6 1,0
18.05.2019 19:00:00 13,4 11,8 12,2 11 6 19 10 ONO 1006,5 - 2,2
18.05.2019 18:00:00 14,4 11,9 15,5 13 7 19 10 NO 1006,1 - 0,0
18.05.2019 17:00:00 13,8 11,7 14,0 16 8 24 13 NO 1006,0 - 0,0
18.05.2019 16:00:00 13,5 11,5 14,2 12 6 22 12 NO 1006,1 - 0,0
18.05.2019 15:00:00 14,7 11,7 15,7 12 6 19 10 NO 1005,9 - 0,0
18.05.2019 14:00:00 13,7 11,4 15,4 8 5 17 9 NO 1005,9 1,5 0,0
18.05.2019 13:00:00 14,1 11,1 17,0 10 5 16 9 NNO 1005,8 - 0,0
18.05.2019 12:00:00 13,9 11,1 14,7 8 4 14 8 NO 1005,8 - 0,0
18.05.2019 11:00:00 13,1 10,3 15,1 9 5 15 8 ONO 1005,6 4,0 0,0
18.05.2019 10:00:00 12,9 10,6 13,7 9 5 13 7 ONO 1005,5 - 0,0
18.05.2019 09:00:00 12,0 9,9 12,3 5 3 10 5 ONO 1005,2 - 0,0
18.05.2019 08:00:00 11,1 10,0 10,2 4 2 7 4 O 1005,1 - 0,0
18.05.2019 07:00:00 10,2 9,4 9,5 4 2 10 6 OZO 1005,0 - 0,0
18.05.2019 06:00:00 10,1 9,2 9,6 5 3 14 7 ZZW 1004,7 - 0,0
18.05.2019 05:00:00 10,0 9,1 9,6 6 4 11 6 Z 1004,9 - 0,0
18.05.2019 04:00:00 10,4 9,5 10,0 6 4 10 6 Z 1005,1 - 0,0
18.05.2019 03:00:00 10,7 9,6 10,0 8 4 10 5 Z 1005,2 - 0,0
18.05.2019 02:00:00 11,2 9,8 9,5 5 3 10 5 Z 1005,6 6 0,0
18.05.2019 01:00:00 11,9 10,5 10,4 6 3 16 8 W 1005,6 - 0,0
18.05.2019 00:00:00 12,5 10,7 11,9 7 4 11 6 W 1005,8 - 0,0
17.05.2019 23:00:00 12,7 10,6 11,8 3 1 10 5 NW 1005,8 - 0,0
17.05.2019 22:00:00 12,9 10,6 12,4 7 4 14 8 N 1005,9 - 0,0
17.05.2019 21:00:00 13,1 10,5 12,8 8 4 14 8 NNO 1005,7 - 0,0
17.05.2019 20:00:00 13,2 10,6 13,3 5 3 15 8 NO 1005,8 - 0,0
17.05.2019 19:00:00 13,4 10,4 14,1 11 6 18 10 NNO 1006,0 - 0,0
17.05.2019 18:00:00 13,5 10,3 14,7 13 7 21 12 NNO 1006,1 - 0,0
17.05.2019 17:00:00 14,0 10,0 15,6 13 7 21 11 NNO 1006,2 - 0,0
17.05.2019 16:00:00 14,3 10,1 17,0 16 9 24 13 NNO 1006,5 - 0,0
17.05.2019 15:00:00 14,1 9,5 17,1 16 9 22 12 N 1006,6 - 0,0
17.05.2019 14:00:00 14,8 10,8 17,7 11 6 20 11 N 1006,5 8 0,0
17.05.2019 13:00:00 14,4 10,2 16,3 13 7 17 9 N 1006,6 - 0,0
17.05.2019 12:00:00 13,0 9,1 14,9 7 4 14 8 NNO 1006,9 - 0,0
17.05.2019 11:00:00 12,5 9,0 14,4 10 5 18 10 ONO 1007,0 11 0,0
17.05.2019 10:00:00 12,2 8,8 12,9 9 5 21 11 NO 1007,3 - 0,0
17.05.2019 09:00:00 11,8 9,2 11,6 8 4 16 9 NO 1007,4 - 0,0
17.05.2019 08:00:00 11,4 9,0 10,2 10 6 18 10 ONO 1007,8 - 0,0
17.05.2019 07:00:00 9,8 7,7 8,2 0 0 7 4 N 1008,1 - 0,0
17.05.2019 06:00:00 10,2 8,3 8,1 8 4 14 7 ONO 1008,3 - 0,0
17.05.2019 05:00:00 9,8 7,6 6,3 5 3 11 6 NO 1008,6 14 0,0
17.05.2019 04:00:00 9,9 7,1 6,9 6 4 23 12 O 1009,1 - 0,0
17.05.2019 03:00:00 11,1 7,8 9,6 14 8 25 13 ONO 1009,6 - 0,0
17.05.2019 02:00:00 11,5 6,8 10,7 13 7 31 17 O 1010,5 15 0,0
17.05.2019 01:00:00 12,3 7,6 11,8 21 12 32 18 ONO 1011,2 - 0,0
17.05.2019 00:00:00 12,6 8,5 11,7 17 9 35 19 NO 1012,1 - 0,0
16.05.2019 23:00:00 12,8 8,7 11,8 18 10 37 20 NO 1012,6 12 0,0
16.05.2019 22:00:00 13,0 8,7 12,2 17 9 47 26 NO 1012,8 - 0,0
16.05.2019 21:00:00 13,2 8,3 12,7 26 14 50 27 NO 1012,5 - 0,0
16.05.2019 20:00:00 13,5 8,1 13,4 26 14 50 27 NO 1012,8 16 0,0
16.05.2019 19:00:00 13,5 7,9 14,5 23 12 50 27 NO 1013,1 - 0,0
16.05.2019 18:00:00 13,4 6,7 14,6 28 15 54 29 NNO 1013,9 - 0,0
16.05.2019 17:00:00 13,6 7,1 15,0 27 15 50 27 NO 1014,6 - 0,0
16.05.2019 16:00:00 14,3 9,3 17,9 29 15 44 24 NNO 1015,6 - 0,0
16.05.2019 15:00:00 15,5 5,7 19,8 15 8 39 21 NNO 1016,3 - 0,0
16.05.2019 14:00:00 15,5 7,0 18,1 16 9 37 20 NO 1016,9 18 0,0
16.05.2019 13:00:00 14,8 6,6 16,0 17 9 39 21 NO 1017,4 - 0,0
16.05.2019 12:00:00 13,7 7,0 16,2 24 13 38 20 NO 1018,0 - 0,0
16.05.2019 11:00:00 15,7 3,1 17,9 7 4 25 13 O 1018,2 14 0,0
16.05.2019 10:00:00 13,9 2,8 13,9 11 6 28 15 OZO 1018,7 - 0,0
16.05.2019 09:00:00 11,9 2,6 12,5 16 8 29 16 O 1019,0 - 0,0
16.05.2019 08:00:00 9,4 3,1 7,0 8 4 15 8 ONO 1019,3 12 0,0
16.05.2019 07:00:00 5,9 2,9 4,3 5 3 9 5 Z 1019,5 - 0,0
16.05.2019 06:00:00 5,9 3,1 2,5 2 1 11 6 Z 1019,2 - 0,0
16.05.2019 05:00:00 6,1 3,4 4,0 3 2 6 4 ZZO 1019,6 10 0,0
16.05.2019 04:00:00 7,1 3,9 3,9 4 2 8 4 Z 1019,8 - 0,0
16.05.2019 03:00:00 8,2 3,6 4,5 5 3 9 5 O 1020,6 - 0,0
16.05.2019 02:00:00 9,2 4,0 5,7 3 2 12 7 ZZW 1021,2 10 0,0
16.05.2019 01:00:00 10,3 4,2 8,7 7 4 22 12 OZO 1021,9 - 0,0
16.05.2019 00:00:00 11,3 4,7 10,1 11 6 27 15 O 1021,8 - 0,0
15.05.2019 23:00:00 12,5 5,9 11,2 16 9 36 20 ONO 1022,1 - 0,0
15.05.2019 22:00:00 13,1 9,9 12,2 24 13 35 19 ONO 1022,1 - 0,0
15.05.2019 21:00:00 13,3 9,7 12,5 21 11 36 19 ONO 1022,2 - 0,0
15.05.2019 20:00:00 14,2 9,8 13,9 15 8 33 18 ONO 1022,1 - 0,0
15.05.2019 19:00:00 14,4 9,0 15,0 14 8 36 19 NO 1022,6 - 0,0
15.05.2019 18:00:00 14,2 8,4 15,4 21 11 40 22 NNO 1023,2 - 0,0
15.05.2019 17:00:00 14,1 8,1 15,7 21 11 42 23 NNO 1023,8 9 0,0
15.05.2019 16:00:00 14,1 7,2 17,5 29 16 43 23 NNO 1024,5 - 0,0
15.05.2019 15:00:00 14,6 7,9 18,4 21 11 34 19 NNO 1024,8 - 0,0
15.05.2019 14:00:00 14,5 8,0 17,3 18 10 32 17 NNO 1025,1 - 0,0
15.05.2019 13:00:00 14,5 6,6 16,7 14 7 26 14 NNO 1025,5 - 0,0
15.05.2019 12:00:00 14,8 8,1 17,6 9 5 20 11 NO 1025,9 - 0,0
15.05.2019 11:00:00 15,8 4,2 20,3 3 2 16 9 W 1026,2 12 0,0
15.05.2019 10:00:00 14,0 6,1 13,9 5 3 20 11 ZO 1026,8 - 0,0
15.05.2019 09:00:00 11,6 5,0 13,3 9 5 19 10 OZO 1026,8 - 0,0
15.05.2019 08:00:00 8,8 5,5 7,8 3 2 7 4 O 1026,8 - 0,0
15.05.2019 07:00:00 7,1 4,7 3,5 5 3 9 5 O 1026,6 - 0,0
15.05.2019 06:00:00 7,0 5,0 5,2 4 2 13 7 ZO 1026,6 - 0,0
15.05.2019 05:00:00 7,4 5,4 4,9 4 2 14 8 ZO 1026,8 8 0,0
15.05.2019 04:00:00 8,0 5,6 6,5 8 5 21 12 O 1027,0 - 0,0
15.05.2019 03:00:00 8,5 5,9 7,2 12 6 19 10 O 1027,1 - 0,0
15.05.2019 02:00:00 8,9 5,8 7,8 11 6 22 12 O 1027,6 - 0,0
15.05.2019 01:00:00 9,8 6,1 8,8 14 8 23 13 O 1028,2 - 0,0
15.05.2019 00:00:00 10,6 6,3 9,5 14 8 30 16 O 1028,1 - 0,0
14.05.2019 23:00:00 11,9 7,6 10,8 20 11 42 23 ONO 1028,0 - 0,0
14.05.2019 22:00:00 12,8 8,9 12,0 30 16 47 25 ONO 1028,2 - 0,0
14.05.2019 21:00:00 13,2 9,4 12,5 24 13 42 23 NO 1028,2 - 0,0
14.05.2019 20:00:00 13,4 9,8 13,0 18 10 48 26 NO 1028,4 - 0,0
14.05.2019 19:00:00 13,5 9,3 14,8 23 13 46 25 NO 1028,4 - 0,0
14.05.2019 18:00:00 13,7 9,3 14,8 27 15 49 27 NNO 1028,8 - 0,0
14.05.2019 17:00:00 13,9 9,5 15,0 31 17 50 27 NNO 1029,3 20 0,0
14.05.2019 16:00:00 14,1 8,1 17,9 26 14 42 23 NNO 1030,0 - 0,0
14.05.2019 15:00:00 14,5 6,8 17,9 21 11 40 22 NNO 1031,2 - 0,0
14.05.2019 14:00:00 14,1 5,2 17,1 18 10 39 21 NO 1031,5 - 0,0
14.05.2019 13:00:00 13,9 5,8 15,5 20 11 43 23 NO 1032,4 - 0,0
14.05.2019 12:00:00 13,3 6,2 15,4 16 9 35 19 NO 1032,7 - 0,0
14.05.2019 11:00:00 12,2 6,2 16,3 16 9 27 15 NO 1033,2 - 0,0
14.05.2019 10:00:00 11,9 5,7 13,6 14 8 22 12 ONO 1033,4 - 0,0
14.05.2019 09:00:00 10,7 4,6 11,5 14 8 23 12 O 1033,9 - 0,0
14.05.2019 08:00:00 8,9 4,3 8,1 13 7 20 11 ONO 1034,0 10 0,0
14.05.2019 07:00:00 7,5 4,1 5,9 10 5 16 9 ONO 1034,1 - 0,0
14.05.2019 06:00:00 7,4 4,2 5,9 12 7 21 11 O 1034,1 - 0,0
14.05.2019 05:00:00 7,5 4,6 6,5 13 7 24 13 O 1034,3 10 0,0
14.05.2019 04:00:00 7,9 4,7 6,8 14 7 21 12 O 1034,7 - 0,0

tt = temperatuur
td = dauwpunt
tt 5cm = temperatuur 5cm
ff = windsnelheid
fx = windstoten
dd = windrichting
ppp = luchtdruk
vv = zicht
rr = neerslag

Weerstations in de omgeving